Regional Weather Roundup
Issued by NWS Kansas City/Pleasant Hill, MO

Home | Current Version | Previous Version | Graphics & Text | Print | Product List | Glossary Off
Versions: 1 2 3 4 5 6 7 8 9 10 11 12 13 14 15 16 17 18 19 20 21 22 23 24 25 26 27

000
ASUS43 KEAX 220510
RWREAX

WEATHER ROUNDUP FOR EASTERN KANSAS AND NORTHWEST MISSOURI
NATIONAL WEATHER SERVICE KANSAS CITY/PLEASANT HILL MO
1200 AM CDT TUE MAY 22 2018

KSZ040-057-103>105-MOZ028-029-037-043-220600-
...KANSAS CITY METROPOLITAN AREA...

CITY           SKY/WX    TMP DP  RH WIND       PRES   REMARKS
K.C. INTL      PTCLDY    61  57  87 SE7       30.04R
K.C. DOWNTOWN  CLEAR     68  58  70 CALM      30.03R
LEES SUMMIT    CLEAR     64  60  87 CALM      30.04S
OLATHE - IXD   CLEAR     63  59  87 SE5       30.05R
OLATHE - OJC   CLEAR     63  59  87 SE3       30.04S
LAWRENCE       CLEAR     61  60  97 E3        30.03S

$$

MOZ001>008-011>017-020>025-030>033-038>040-044>046-053-054-220600-
...NORTHERN AND CENTRAL MISSOURI...

CITY           SKY/WX    TMP DP  RH WIND       PRES   REMARKS
ST. JOSEPH     CLEAR     62  59  90 S5        30.04R
MOSBY          CLEAR     59  57  94 CALM      30.05R
WARRENSBURG    CLEAR     61  59  94 CALM      30.04S FOG
WHITEMAN AFB   CLEAR     63  60  89 NW3       29.99F
CLINTON        CLEAR     61  61 100 CALM      30.03F
SEDALIA        CLEAR     64  63  96 NW3       30.04S
WARSAW         NOT AVBL
CHILLICOTHE      N/A     60  58  92 CALM      30.04R
KIRKSVILLE     CLEAR     58  58 100 CALM      30.03R FOG

$$

MOZ041-047>049-056>058-063>065-088>090-097-220600-
...EASTERN AND SOUTHERN MISSOURI...

CITY           SKY/WX    TMP DP  RH WIND       PRES   REMARKS
ST. LOUIS INTL PTCLDY    72  68  87 SW3       30.00F
SPIRIT OF STL  MOCLDY    70  69  97 CALM      29.99S
COLUMBIA       CLEAR     64  60  87 SW5       30.03R
JEFFERSON CITY CLEAR     64  61  90 CALM      30.02S
ROLLA          CLEAR     66  62  87 CALM      30.04S
OSAGE BEACH    CLEAR     62  61  96 CALM      30.04S
SPRINGFIELD    CLEAR     66  61  84 CALM      30.03F
BRANSON        CLEAR     66  66 100 CALM      30.05S
JOPLIN         CLEAR     66  63  90 E5        30.03F
WEST PLAINS    CLEAR     70  67  90 CALM      30.05F

$$

IAZ060-094-KSZ022-034>040-054-083-096-NEZ052-066-093-220600-
...KANSAS...SOUTHEAST NEBRASKA AND IOWA...

CITY           SKY/WX    TMP DP  RH WIND       PRES   REMARKS
TOPEKA         CLEAR     65  62  90 E3        30.02S
MANHATTAN      CLOUDY    66  60  81 S3        30.00F
EMPORIA        CLEAR     64  61  90 SE6       30.02F
CHANUTE        CLEAR     63  61  93 CALM      30.03S
WICHITA        CLOUDY    69  62  78 SE9       30.00S
OMAHA          CLOUDY    65  57  75 SE7       29.99F
LINCOLN        CLOUDY    66  57  72 SE3       29.99F
FALLS CITY     CLOUDY    65  59  81 S6        30.01R
LAMONI         CLEAR     61  58  90 SW6       30.03R
DES MOINES     PTCLDY    65  61  87 E8        30.00S

$$





USA.gov is the U.S. government's official web portal to all federal, state and local government web resources and services.